Regional Weather Roundup
Issued by NWS Mobile, AL

Home | Current Version | Previous Version | Text Only | Print | Product List | Glossary On
Versions: 1 2 3 4 5 6 7 8 9 10 11 12 13 14 15 16 17 18 19 20 21 22 23 24 25 26 27
000
ASUS44 KMOB 301012
RWRMOB
REGIONAL WEATHER ROUNDUP
NATIONAL WEATHER SERVICE MOBILE AL
500 AM CDT FRI SEP 30 2016

NOTE: "FAIR" INDICATES FEW OR NO CLOUDS BELOW 12,000 FEET WITH NO
      SIGNIFICANT WEATHER AND/OR OBSTRUCTIONS TO VISIBILITY.

  * THESE STATIONS ARE PART OF THE UNIVERSITY OF SOUTH ALABAMA
    MESONET AND ARE NOT UNDER NWS OR FAA QUALITY CONTROL.

ALZ061>064-301100-
COASTAL ALABAMA

CITY           SKY/WX    TMP DP  RH WIND       PRES   REMARKS
MOBILE REG APT CLEAR     55  52  89 CALM      30.07R
BROOKLEY FIELD PTCLDY    59  52  77 NW6       30.07S
USA CAMPUS*    NOT AVBL
DOG RIVER*     NOT AVBL


CITY           SKY/WX    TMP DP  RH WIND       PRES   REMARKS
MOUNT VERNON*  NOT AVBL
SARALAND*      NOT AVBL
BAY MINETTE*   NOT AVBL
LOXLEY*        NOT AVBL
ROBERTSDALE*   NOT AVBL
FAIRHOPE*      NOT AVBL
ELBERTA*       NOT AVBL
FOLEY*         NOT AVBL
GRAND BAY*     NOT AVBL
DAUPHIN ISLND* NOT AVBL
BON SCOUR NWR* NOT AVBL
GULF SHORES    CLEAR     58  52  80 N3        30.05S

$$

ALZ051>060-301100-
INTERIOR SOUTHWEST AND SOUTH CENTRAL ALABAMA

CITY           SKY/WX    TMP DP  RH WIND       PRES   REMARKS
GREENVILLE     CLEAR     53  48  83 CALM      30.05R
EVERGREEN      CLEAR     52  50  93 CALM      30.06S
CASTLEBERRY*   NOT AVBL
ATMORE*        NOT AVBL
DIXIE*         NOT AVBL
ANDALUSIA/OPP  CLEAR     58  51  78 NW3       30.05R
ANDALUSIA*     NOT AVBL
FLORALA APT    CLEAR     52  49  89 CALM      30.06R
FLORALA*       NOT AVBL

$$

FLZ001>006-301100-
WESTERN FLORIDA PANHANDLE

CITY           SKY/WX    TMP DP  RH WIND       PRES   REMARKS
PENSACOLA      CLEAR     61  50  67 N5        30.05R
NAS PENSACOLA  CLEAR     55  50  83 CALM      30.04S
MILTON         CLEAR     54  52  93 N3        30.05
WHTNG S FIELD  CLEAR     57  52  83 CALM      30.05R


CITY           SKY/WX    TMP DP  RH WIND       PRES   REMARKS
WALNUT HILL*   NOT AVBL
JAY*           NOT AVBL
DUKE FIELD     CLEAR     53  49  88 CALM      30.04R
CRESTVIEW      CLEAR     53  50  89 CALM      30.06R
VALPARAISO     CLEAR     58  49  73 N8        30.03R
DESTIN         CLEAR     68  54  60 N9        30.03S

$$

MSZ076-079-301100-
INTERIOR SOUTHEAST MISSISSIPPI

CITY           SKY/WX    TMP DP  RH WIND       PRES   REMARKS
LEAKESVILLE*   NOT AVBL
AGRICOLA*      NOT AVBL

$$

MARINE OBSERVATIONS

STATION/POSITION TIME  TEMP    WIND        PRES    WAVE
                       AIR SEA DIR/SP/G            HT/PER
                 (UTC) (F)     (DEG/KT/KT) (MB)    (FT/S)
PASCAGOULA       0900   62     350/  6/  7 1017.6R
PETIT BOIS ISLND 0900   69      10/ 12/ 14 1018.1F
GRAND BAY        0845   61     350/  5     1018.0F
KATRINA CUT      0900   71      10/ 11     1017.3F
CEDAR POINT      0900   65     350/  9     1016.9S
E DAUPHIN ISLAND 0900   74      30/ 12/ 13 1017.3S
MIDDLE BAY LIGHT 0900   71     360/ 13     1017.3S
USCG MOBILE BAY  0900   62 85  330/  4/  6 1018.2F
STATE DOCKS      0900   62 85              1017.6F
MEAHER PARK      0900   63     360/  3     1017.3F
WEEKS BAY        0800   58                   N/A
FORT MORGAN      0900   73      40/ 13/ 15 1016.6F
12 S ORANGE BCH  0950   74 84   30/ 16/ 17 1017.2R   2/ 4
PENSACOLA BAY    0900   65 81   10/  5/  8 1017.3R
64 S DAUPHIN ISL 0900   78 85   30/ 14/ 17 1016.4S
67 S FORT MORGAN 0930   76      30/ 14     1016.6R

$$

SELECTED LOCATIONS ACROSS THE REGION

CITY           SKY/WX    TMP DP  RH WIND       PRES   REMARKS
NEW ORLEANS    CLEAR     72  56  57 NE12      30.07R
GULFPORT       CLEAR     59  54  83 N3        30.06S
PASCAGOULA AP  CLEAR     53  53 100 CALM      30.06S
PASCAGOULA*    NOT AVBL
HATTIESBURG    CLEAR     55  52  89 CALM      30.09R
LAUREL         CLEAR    N/A N/A N/A MISG        N/A
MERIDIAN       CLEAR     54  50  86 CALM      30.09R
JACKSON        CLEAR     54  51  90 CALM      30.10R
MONTGOMERY     CLEAR     54  48  80 CALM      30.06R
TROY           CLEAR     50  49  96 CALM      30.05S
KINSTON*       NOT AVBL
GENEVA*        NOT AVBL
ASHFORD*       NOT AVBL
DOTHAN         CLEAR     53  51  93 N5        30.07R
PANAMA CITY    CLEAR     56  52  86 N5        30.02R

$$





USA.gov is the U.S. government's official web portal to all federal, state and local government web resources and services.